Location: Tel Aviv
(32.0670°N, 34.7670°E)
Time: 02:11:42
(UTC+02:00)

Transit 4A - Pass Details

Date: 08 December 2023
Orbit: 869 x 974 km, 66.8° (Epoch: 23 February)

Event Time Altitude Azimuth Distance (km) Brightness Sun altitude
Rises 16:56:23 0° 158° (SSE) 3,647 11.0 -4.7°
Reaches altitude 10° 17:00:07 10° 136° (SE) 2,710 10.1 -5.4°
Maximum altitude 17:03:33 15° 103° (ESE) 2,355 9.6 -6.1°
Drops below altitude 10° 17:06:58 10° 70° (ENE) 2,714 9.6 -6.7°
Enters shadow 17:07:49 - 64° (ENE) 2,891 9.8 -6.9°
